Location: Newark
(34.9471°N, 136.1778°E)
Time: 09:47:49
(UTC+00:00)

METEOR M2 - Pass Details

Date: 23 February 2020
Orbit: 818 x 828 km, 98.5° (Epoch: 07 April)

Event Time Altitude Azimuth Distance (km) Brightness Sun altitude
Exits shadow 11:12:36 29° 205° (SSW) 1,485 ? -30.9°
Maximum altitude 11:14:59 46° 261° (W) 1,096 ? -31.4°
Drops below altitude 10° 11:20:09 10° 334° (NNW) 2,436 ? -32.5°
Sets 11:22:37 0° 340° (NNW) 3,373 ? -33.0°
